Regional Weather Roundup
Issued by NWS

Home | Current Version | Previous Version | Graphics & Text | Print | Product List | Glossary On
Versions: 1 2 3 4 5 6 7 8 9 10 11 12 13 14 15 16 17 18 19 20 21 22 23 24 25 26 27 28 29 30 31 32 33 34 35 36 37 38 39 40 41 42 43 44 45 46 47 48 49 50
000
ASUS43 KLSX 011507
RWRMO

WEATHER SUMMARY FOR MISSOURI
NATIONAL WEATHER SERVICE SPRINGFIELD MO
1000 AM CDT WED JUL 01 2015

NOTE: "FAIR" INDICATES FEW OR NO CLOUDS BELOW 12,000 FEET WITH NO
       SIGNIFICANT WEATHER AND/OR OBSTRUCTIONS TO VISIBILITY.
       CURRENT SKY AND/OR WEATHER CONDITIONS ARE NOT AVAILABLE FOR
       CHILLICOTHE AND FARMINGTON.

MOZ001>031-035>038-043-044-053-054-011600-
...NORTHERN AND WESTERN MISSOURI...

CITY           SKY/WX    TMP DP  RH WIND       PRES   REMARKS
KANSAS CTY INT PTSUNNY   71  69  93 S16       29.83F
KANSAS C DTWN  PTSUNNY   73  68  84 S15       29.83F
LEE`S SUMMIT   PTSUNNY   72  68  87 S8        29.87R
ST JOSEPH      PTSUNNY   75  69  81 NE7       29.85R
CHILLICOTHE      N/A     75  69  81 VRB6      29.88R
KIRKSVILLE     MOSUNNY   75  67  76 S3        29.92R

$$
MOZ066>068-077>081-088>096-101>105-011600-
...SOUTHWEST MISSOURI...

CITY           SKY/WX    TMP DP  RH WIND       PRES   REMARKS
SPRINGFIELD    CLOUDY    69  66  90 E9        30.00F
JOPLIN         CLOUDY    79  72  79 VRB5      29.95R

$$
MOZ032>034-039>042-045>050-055>058-069>072-011600-
...CENTRAL MISSOURI...

CITY           SKY/WX    TMP DP  RH WIND       PRES   REMARKS
COLUMBIA       CLOUDY    72  69  90 S14       29.93R
JEFFERSON CITY CLOUDY    71  68  90 S8G20     29.93S
ROLLA          LGT RAIN  66  66 100 S14G22    29.97F FOG
SEDALIA        CLOUDY    71  68  90 S15       29.93F
WHITEMAN AFB   TSTM      70  70 100 S21       29.86F
WARRENSBURG    CLOUDY    70  68  94 S14       29.87F
OSAGE BEACH    CLOUDY    68  64  88 SE12      29.97F

$$
MOZ051-052-059>065-011600-
...EAST CENTRAL MISSOURI...

CITY           SKY/WX    TMP DP  RH WIND       PRES   REMARKS
ST LOUIS INTL  CLOUDY    75  66  73 W14       29.94R
SPIRIT OF STL  CLOUDY    72  69  90 SW5       29.92F
ST CHARLES     CLOUDY    74  68  81 W9        29.92S

$$
MOZ072>076-082>087-097>100-106>115-011600-
...SOUTH CENTRAL AND SOUTHEAST MISSOURI...

CITY           SKY/WX    TMP DP  RH WIND       PRES   REMARKS
CAPE GIRARDEAU LGT RAIN  72  70  93 W10       29.99R
FARMINGTON     CLOUDY    68  64  88 W8        30.03F
POPLAR BLUFF   RAIN      70  67  90 NW12      30.00R FOG
WEST PLAINS    RAIN      68  65  90 N12       30.05R FOG

$$



USA.gov is the U.S. government's official web portal to all federal, state and local government web resources and services.